Location: Peebles
(55.6412°N, 3.1714°W)
Time: 21:52:18
(UTC+00:00)

deb Agena D - Pass Details

Date: 23 September 2023
Orbit: 794 x 979 km, 99.8° (Epoch: 28 November)

Event Time Altitude Azimuth Distance (km) Brightness Sun altitude
Rises 02:50:46 0° 16° (NNE) 3,691 10.6 -30.3°
Reaches altitude 10° 02:53:26 10° 9° (N) 2,745 9.6 -30.1°
Maximum altitude 02:58:57 36° 306° (NW) 1,513 7.4 -29.7°
Enters shadow 02:59:11 36° 301° (WNW) 1,515 7.4 -29.7°
